Date String (YYYY-MM-DD hh:mm:ss) UTC,Instrument flags,absolute air pressure of the measurement (hPa),sample flow rate (lpm),inlet stack bypass flow (lpm),air temperature of the measurement (°C),ambient temperature measured by the external sensor (°C),aerosol sample conditioner tube jacket temperature (°C),OPC LED temperature (°C),internal box temperature (°C),relative humidity of the measurement (%),span deviation,mass concentration of particles derived from Lorenz-Mie calculation of OPC scattering (μg/m³),mass concentration of particles derived from Lorenz-Mie calculation of OPC scattering (μg/m³),mass concentration of particles derived from Lorenz-Mie calculation of OPC scattering (μg/m³)
DateTimeUTC,F1_M11,P_M11,Q1_M11,Q2_M11,T1_M11,T2_M11,T3_M11,T4_M11,T5_M11,U1_M11,ZSPAN_M11,X0_M11,X2_M11,X1_M11
2023-06-10 19:00:00,SystemResetWarning,0829.4,5.00,000.00,029.2,025.9,000.0,037.7,030.5,25.7,0000.0,0008.11,0004.10,0003.54
2023-06-10 19:01:00,SystemResetWarning,0829.4,5.00,000.00,029.1,026.3,000.0,037.7,030.6,25.5,0000.0,0008.35,0004.12,0003.54
2023-06-10 19:02:00,SystemResetWarning,0829.4,5.00,000.00,029.1,026.6,000.0,037.7,030.7,25.8,0000.0,0009.18,0004.15,0003.54
2023-06-10 19:03:00,SystemResetWarning,0829.4,5.00,000.00,029.1,026.9,000.0,037.7,030.7,25.6,0000.0,0009.31,0004.18,0003.53
2023-06-10 19:04:00,SystemResetWarning,0829.4,5.01,000.00,029.2,027.1,000.0,037.7,030.7,25.4,0000.0,0009.32,0004.21,0003.54
2023-06-10 19:05:00,SystemResetWarning,0829.4,4.99,000.00,029.2,027.3,000.0,037.7,030.8,24.9,0000.0,0009.29,0004.26,0003.57
2023-06-10 19:06:00,SystemResetWarning,0829.5,5.00,000.00,029.2,027.5,000.0,037.7,030.9,25.2,0000.0,0009.49,0004.29,0003.59
2023-06-10 19:07:00,SystemResetWarning,0829.5,5.00,000.00,029.2,027.7,000.0,037.7,030.9,25.4,0000.0,0009.84,0004.33,0003.59
2023-06-10 19:08:00,SystemResetWarning,0829.4,5.00,000.00,029.3,027.8,000.0,037.7,030.9,26.0,0000.0,0010.19,0004.39,0003.58
2023-06-10 19:09:00,SystemResetWarning,0829.4,5.00,000.00,029.3,027.9,000.0,037.7,031.0,25.5,0000.0,0010.19,0004.37,0003.56
2023-06-10 19:10:00,SystemResetWarning,0829.3,5.00,000.00,029.3,027.3,000.0,037.7,031.0,25.6,0000.0,0010.91,0004.40,0003.56
2023-06-10 19:11:00,SystemResetWarning,0829.3,5.00,000.00,029.3,025.5,000.0,037.7,030.9,25.6,0000.0,0011.10,0004.39,0003.57
2023-06-10 19:12:00,SystemResetWarning,0829.4,5.01,000.00,029.3,025.1,000.0,037.6,030.9,25.2,0000.0,0011.07,0004.39,0003.58
2023-06-10 19:13:00,SystemResetWarning,0829.4,5.01,000.00,029.2,025.4,000.0,037.7,030.6,25.7,0000.0,0010.54,0004.39,0003.58
2023-06-10 19:14:00,SystemResetWarning,0829.3,4.99,000.00,029.1,025.7,000.0,037.7,030.5,26.0,0000.0,0010.24,0004.38,0003.59
2023-06-10 19:15:00,SystemResetWarning,0829.3,5.00,000.00,029.1,026.1,000.0,037.7,030.6,25.3,0000.0,0010.24,0004.37,0003.59
2023-06-10 19:16:00,SystemResetWarning,0829.3,5.01,000.00,029.1,026.5,000.0,037.7,030.7,26.1,0000.0,0010.07,0004.37,0003.58
2023-06-10 19:17:00,SystemResetWarning,0829.3,5.00,000.00,029.1,026.8,000.0,037.7,030.7,25.9,0000.0,0010.12,0004.32,0003.56
2023-06-10 19:18:00,SystemResetWarning,0829.3,4.99,000.00,029.2,027.1,000.0,037.7,030.8,25.7,0000.0,0009.44,0004.26,0003.55
2023-06-10 19:19:00,SystemResetWarning,0829.3,5.00,000.00,029.2,027.3,000.0,037.7,030.8,26.2,0000.0,0009.51,0004.24,0003.56
2023-06-10 19:20:00,SystemResetWarning,0829.2,5.00,000.00,029.2,027.5,000.0,037.7,030.8,25.8,0000.0,0010.01,0004.28,0003.58
2023-06-10 19:21:00,SystemResetWarning,0829.2,5.01,000.00,029.2,027.6,000.0,037.7,030.9,25.2,0000.0,0009.73,0004.28,0003.59
2023-06-10 19:22:00,SystemResetWarning,0829.3,5.01,000.00,029.3,027.8,000.0,037.7,030.9,24.9,0000.0,0009.55,0004.31,0003.61
2023-06-10 19:23:00,SystemResetWarning,0829.2,5.00,000.00,029.3,027.9,000.0,037.7,031.0,24.9,0000.0,0009.54,0004.36,0003.65
2023-06-10 19:24:00,SystemResetWarning,0829.2,4.99,000.00,029.3,027.8,000.0,037.7,031.0,25.3,0000.0,0009.47,0004.34,0003.67
2023-06-10 19:25:00,SystemResetWarning,0829.2,5.00,000.00,029.3,026.2,000.0,037.7,030.9,24.7,0000.0,0009.59,0004.32,0003.70
2023-06-10 19:26:00,SystemResetWarning,0829.1,5.01,000.00,029.3,025.2,000.0,037.7,030.9,24.9,0000.0,0009.58,0004.32,0003.73
2023-06-10 19:27:00,SystemResetWarning,0829.1,5.01,000.00,029.3,025.4,000.0,037.7,030.7,26.2,0000.0,0009.57,0004.32,0003.73
2023-06-10 19:28:00,SystemResetWarning,0829.1,4.98,000.00,029.2,025.7,000.0,037.7,030.6,25.6,0000.0,0009.38,0004.35,0003.75
2023-06-10 19:29:00,SystemResetWarning,0829.0,4.99,000.00,029.2,026.0,000.0,037.7,030.6,24.9,0000.0,0009.55,0004.40,0003.79
2023-06-10 19:30:00,SystemResetWarning,0829.0,5.00,000.00,029.1,026.4,000.0,037.7,030.7,25.2,0000.0,0009.24,0004.41,0003.80
2023-06-10 19:31:00,SystemResetWarning,0829.0,5.01,000.00,029.2,026.7,000.0,037.7,030.7,25.7,0000.0,0008.76,0004.41,0003.80
2023-06-10 19:32:00,SystemResetWarning,0829.0,5.01,000.00,029.2,027.0,000.0,037.7,030.8,25.4,0000.0,0008.66,0004.44,0003.80
2023-06-10 19:33:00,SystemResetWarning,0828.9,5.00,000.00,029.2,027.3,000.0,037.7,030.8,24.9,0000.0,0008.71,0004.44,0003.79
2023-06-10 19:34:00,SystemResetWarning,0828.8,5.00,000.00,029.2,027.5,000.0,037.7,030.9,25.1,0000.0,0008.56,0004.39,0003.76
2023-06-10 19:35:00,SystemResetWarning,0828.8,5.00,000.00,029.3,027.7,000.0,037.7,030.9,25.3,0000.0,0008.46,0004.37,0003.74
2023-06-10 19:36:00,SystemResetWarning,0828.8,5.00,000.00,029.3,027.8,000.0,037.7,031.0,24.9,0000.0,0008.29,0004.38,0003.73
2023-06-10 19:37:00,SystemResetWarning,0828.8,5.00,000.00,029.3,027.9,000.0,037.8,031.0,25.0,0000.0,0008.47,0004.40,0003.72
2023-06-10 19:38:00,SystemResetWarning,0828.8,4.98,000.00,029.4,026.9,000.0,037.7,031.1,26.1,0000.0,0008.64,0004.42,0003.70
2023-06-10 19:39:00,SystemResetWarning,0828.7,5.00,000.00,029.3,025.4,000.0,037.7,031.0,25.4,0000.0,0008.54,0004.39,0003.70
2023-06-10 19:40:00,SystemResetWarning,0828.7,5.02,000.00,029.3,025.3,000.0,037.7,030.9,25.6,0000.0,0008.47,0004.37,0003.68
2023-06-10 19:41:00,SystemResetWarning,0828.7,5.00,000.00,029.2,025.6,000.0,037.7,030.7,25.9,0000.0,0008.39,0004.34,0003.65
2023-06-10 19:42:00,SystemResetWarning,0828.7,5.00,000.00,029.2,025.9,000.0,037.7,030.6,25.9,0000.0,0008.35,0004.32,0003.64
2023-06-10 19:43:00,SystemResetWarning,0828.7,5.00,000.00,029.2,026.3,000.0,037.7,030.7,25.9,0000.0,0008.15,0004.25,0003.62
2023-06-10 19:44:00,SystemResetWarning,0828.7,5.00,000.00,029.2,026.7,000.0,037.7,030.7,26.3,0000.0,0008.00,0004.21,0003.60
2023-06-10 19:45:00,SystemResetWarning,0828.7,4.99,000.00,029.2,026.9,000.0,037.7,030.8,27.2,0000.0,0008.49,0004.18,0003.58
2023-06-10 19:46:00,SystemResetWarning,0828.7,4.99,000.00,029.2,027.2,000.0,037.7,030.8,26.7,0000.0,0008.52,0004.15,0003.56
2023-06-10 19:47:00,SystemResetWarning,0828.8,5.00,000.00,029.2,027.4,000.0,037.7,030.9,25.6,0000.0,0008.92,0004.15,0003.56
2023-06-10 19:48:00,SystemResetWarning,0828.8,5.00,000.00,029.3,027.6,000.0,037.7,030.9,26.1,0000.0,0008.90,0004.10,0003.54
2023-06-10 19:49:00,SystemResetWarning,0828.9,5.01,000.00,029.3,027.8,000.0,037.7,031.0,25.4,0000.0,0008.76,0004.10,0003.53
2023-06-10 19:50:00,SystemResetWarning,0829.0,5.00,000.00,029.3,027.9,000.0,037.8,031.0,25.7,0000.0,0009.29,0004.14,0003.56
2023-06-10 19:51:00,SystemResetWarning,0828.9,4.99,000.00,029.4,028.0,000.0,037.8,031.1,25.2,0000.0,0010.21,0004.15,0003.57
2023-06-10 19:52:00,SystemResetWarning,0829.0,4.99,000.00,029.4,026.7,000.0,037.8,031.0,25.1,0000.0,0010.43,0004.21,0003.59
2023-06-10 19:53:00,SystemResetWarning,0829.0,5.00,000.00,029.4,025.4,000.0,037.7,030.9,24.8,0000.0,0010.52,0004.25,0003.62
2023-06-10 19:54:00,SystemResetWarning,0829.0,5.00,000.00,029.3,025.4,000.0,037.7,030.8,25.1,0000.0,0010.55,0004.31,0003.68
2023-06-10 19:55:00,SystemResetWarning,0829.0,5.02,000.00,029.2,025.7,000.0,037.7,030.6,25.2,0000.2,0010.90,0004.36,0003.72
2023-06-10 19:56:00,SystemResetWarning,0829.0,5.01,000.00,029.2,026.1,000.0,037.7,030.7,25.4,0000.0,0011.38,0004.41,0003.74
2023-06-10 19:57:00,SystemResetWarning,0829.0,4.99,000.00,029.2,026.4,000.0,037.7,030.7,25.3,0000.0,0011.58,0004.47,0003.78
2023-06-10 19:58:00,SystemResetWarning,0829.0,4.99,000.00,029.2,026.8,000.0,037.7,030.8,26.3,0000.0,0011.47,0004.48,0003.78
2023-06-10 19:59:00,SystemResetWarning,0829.1,5.00,000.00,029.2,027.1,000.0,037.7,030.8,26.0,0000.9,0011.54,0004.49,0003.78
